DW4381 Weather Reports


Display with metric or nautical units.
time (UTC)temp
F
wind
direction
speed
MPH
gust
MPH
rain 1hr
in
rain 24hr
in
rain mn
in
humidity
%
barometer
mb
20211207092148 30 10 23.0 44.0 0.00 0.00 0.00 54 1004.6
20211207091649 31 10 11.0 45.0 0.00 0.00 0.00 54 1005.0
20211207091148 31 10 16.0 45.0 0.00 0.00 0.00 53 1004.7
20211207090649 31 10 47.0 52.0 0.00 0.00 0.00 53 1004.5
20211207090149 31 10 34.0 48.0 0.00 0.00 0.00 54 1004.2
20211207085648 30 10 19.0 44.0 0.00 0.00 0.00 54 1004.1
20211207085149 30 10 33.0 53.0 0.00 0.00 0.00 55 1003.9
20211207084648 30 10 43.0 50.0 0.00 0.00 0.00 55 1003.9
20211207084148 30 10 40.0 56.0 0.00 0.00 0.00 56 1004.1
20211207083648 30 10 31.0 51.0 0.00 0.00 0.00 56 1003.1
20211207083148 30 10 16.0 45.0 0.00 0.00 0.00 56 1004.0
20211207082648 30 10 19.0 38.0 0.00 0.00 0.00 55 1004.2
20211207082148 30 10 20.0 55.0 0.00 0.00 0.00 55 1004.5
20211207081648 30 10 22.0 45.0 0.00 0.00 0.00 55 1004.6
20211207081149 30 10 34.0 54.0 0.00 0.00 0.00 55 1005.4
20211207080648 30 10 15.0 46.0 0.00 0.00 0.00 55 1005.5
20211207080148 30 10 7.0 46.0 0.00 0.00 0.00 54 1005.5
20211207075649 30 10 16.0 45.0 0.00 0.00 0.00 54 1005.6
20211207075148 30 10 27.0 42.0 0.00 0.00 0.00 53 1005.9
20211207074648 30 10 17.0 50.0 0.00 0.00 0.00 52 1005.8
20211207074148 30 10 27.0 54.0 0.00 0.00 0.00 52 1005.7
20211207073649 30 10 24.0 55.0 0.00 0.00 0.00 52 1005.3
20211207073149 30 10 26.0 46.0 0.00 0.00 0.00 51 1005.9
20211207072649 30 10 14.0 55.0 0.00 0.00 0.00 51 1006.2
20211207072149 30 10 9.0 55.0 0.00 0.00 0.00 51 1006.2
20211207071648 30 10 34.0 51.0 0.00 0.00 0.00 51 1006.5
20211207071148 30 10 33.0 52.0 0.00 0.00 0.00 51 1006.1
20211207070648 30 10 42.0 52.0 0.00 0.00 0.00 50 1005.7
20211207070148 31 10 10.0 48.0 0.00 0.00 0.00 50 1005.8
20211207065649 31 10 24.0 51.0 0.00 0.00 0.00 51 1005.9
20211207065148 30 10 16.0 47.0 0.00 0.00 0.00 50 1005.7
20211207064649 30 10 23.0 45.0 0.00 0.00 0.00 51 1006.0
20211207064148 30 10 27.0 47.0 0.00 0.00 0.00 51 1006.2
20211207063649 30 10 38.0 45.0 0.00 0.00 0.00 50 1006.2
20211207063148 30 10 21.0 56.0 0.00 0.00 0.00 49 1006.6
20211207062648 30 10 27.0 45.0 0.00 0.00 0.00 49 1006.7
20211207062148 30 10 47.0 48.0 0.00 0.00 0.00 49 1006.8
20211207061648 30 10 19.0 56.0 0.00 0.00 0.00 49 1006.8
20211207061148 30 10 32.0 49.0 0.00 0.00 0.00 49 1006.9
20211207060648 30 10 29.0 43.0 0.00 0.00 0.00 49 1007.2
20211207060148 30 10 46.0 46.0 0.00 0.00 0.00 49 1007.5
20211207055648 30 10 11.0 54.0 0.00 0.00 0.00 49 1007.2
20211207055148 30 10 47.0 47.0 0.00 0.00 0.00 48 1007.6
20211207054649 30 10 14.0 46.0 0.00 0.00 0.00 48 1007.4
20211207054148 30 10 20.0 48.0 0.00 0.00 0.00 48 1007.5
20211207053648 30 10 25.0 42.0 0.00 0.00 0.00 48 1007.6
20211207053148 30 10 33.0 40.0 0.00 0.00 0.00 48 1007.6
20211207052649 30 10 13.0 41.0 0.00 0.00 0.00 47 1007.5
20211207052149 30 10 18.0 46.0 0.00 0.00 0.00 46 1007.4
20211207051648 30 10 26.0 47.0 0.00 0.00 0.00 46 1007.4
20211207051148 30 10 19.0 49.0 0.00 0.00 0.00 46 1007.7
20211207050648 30 10 39.0 46.0 0.00 0.00 0.00 47 1007.6
20211207050149 30 10 33.0 45.0 0.00 0.00 0.00 46 1008.0
20211207045648 30 10 22.0 52.0 0.00 0.00 0.00 47 1007.9
20211207045148 30 10 16.0 47.0 0.00 0.00 0.00 48 1007.8
20211207044649 30 10 16.0 60.0 0.00 0.00 0.00 48 1007.4
20211207044148 30 10 30.0 58.0 0.00 0.00 0.00 48 1007.9
20211207043648 30 10 8.0 43.0 0.00 0.00 0.00 49 1007.7
20211207043148 30 10 34.0 44.0 0.00 0.00 0.00 48 1008.1
20211207042648 29 10 35.0 46.0 0.00 0.00 0.00 49 1008.3
20211207042148 29 10 36.0 41.0 0.00 0.00 0.00 49 1008.6
20211207041649 29 10 35.0 55.0 0.00 0.00 0.00 49 1008.0
20211207041149 29 10 25.0 47.0 0.00 0.00 0.00 49 1008.5
20211207040648 29 10 17.0 58.0 0.00 0.00 0.00 50 1008.7
20211207040149 29 10 17.0 46.0 0.00 0.00 0.00 50 1008.6
20211207035648 29 10 15.0 45.0 0.00 0.00 0.00 51 1008.9
20211207035149 29 10 29.0 50.0 0.00 0.00 0.00 51 1009.3
20211207034653 29 10 26.0 43.0 0.00 0.00 0.00 51 1008.9
20211207034148 29 10 4.0 43.0 0.00 0.00 0.00 51 1009.2
20211207033648 29 10 10.0 35.0 0.00 0.00 0.00 51 1008.9
20211207033148 29 10 20.0 52.0 0.00 0.00 0.00 51 1009.2
20211207032649 29 10 14.0 44.0 0.00 0.00 0.00 51 1008.9
20211207032149 29 10 10.0 42.0 0.00 0.00 0.00 52 1009.1
20211207031648 28 10 35.0 49.0 0.00 0.00 0.00 52 1009.5
20211207031149 28 10 14.0 39.0 0.00 0.00 0.00 53 1009.9
20211207030649 28 10 8.0 38.0 0.00 0.00 0.00 52 1009.7
20211207030148 28 10 22.0 44.0 0.00 0.00 0.00 52 1010.0
20211207025648 28 10 12.0 38.0 0.00 0.00 0.00 53 1010.1
20211207025149 28 10 4.0 47.0 0.00 0.00 0.00 53 1010.6
20211207024649 28 10 14.0 39.0 0.00 0.00 0.00 53 1010.4
20211207024148 28 10 11.0 42.0 0.00 0.00 0.00 53 1010.5
20211207023648 28 10 19.0 51.0 0.00 0.00 0.00 53 1010.0
20211207023148 28 10 27.0 46.0 0.00 0.00 0.00 54 1010.1
20211207022649 28 10 22.0 45.0 0.00 0.00 0.00 54 1010.4
20211207022148 28 10 14.0 47.0 0.00 0.00 0.00 53 1010.0
20211207021649 28 10 19.0 44.0 0.00 0.00 0.00 54 1010.3
20211207021148 28 10 20.0 53.0 0.00 0.00 0.00 54 1010.3
20211207020649 28 10 24.0 48.0 0.00 0.00 0.00 54 1010.8
20211207020148 27 10 18.0 44.0 0.00 0.00 0.00 54 1010.3
20211207015648 27 10 13.0 45.0 0.00 0.00 0.00 54 1010.7
20211207015149 28 10 15.0 52.0 0.00 0.00 0.00 54 1010.6
20211207014654 28 10 15.0 40.0 0.00 0.00 0.00 55 1009.7
20211207014148 28 10 11.0 46.0 0.00 0.00 0.00 55 1010.6
20211207013648 27 10 23.0 41.0 0.00 0.00 0.00 57 1010.1
20211207013148 27 10 6.0 51.0 0.00 0.00 0.00 58 1010.4
20211207012649 27 10 26.0 42.0 0.00 0.00 0.00 59 1010.0
20211207012148 27 10 22.0 40.0 0.00 0.00 0.00 58 1010.7
20211207011649 27 10 37.0 43.0 0.00 0.00 0.00 58 1010.9
20211207011148 27 10 21.0 44.0 0.00 0.00 0.00 58 1011.2
20211207010648 28 10 22.0 49.0 0.00 0.00 0.00 57 1011.4
20211207010148 28 10 21.0 39.0 0.00 0.00 0.00 55 1011.5
20211207005648 28 10 25.0 37.0 0.00 0.00 0.00 55 1011.5
20211207005149 28 10 29.0 42.0 0.00 0.00 0.00 55 1011.6
20211207004648 28 10 17.0 45.0 0.00 0.00 0.00 54 1011.6
20211207004148 28 10 29.0 46.0 0.00 0.00 0.00 54 1011.5
20211207003648 29 10 23.0 36.0 0.00 0.00 0.00 54 1011.4
20211207003148 29 10 16.0 47.0 0.00 0.00 0.00 53 1011.5
20211207002649 29 10 22.0 50.0 0.00 0.00 0.00 53 1011.4
20211207002149 29 10 14.0 42.0 0.00 0.00 0.00 52 1011.7
20211207001648 29 10 19.0 35.0 0.00 0.00 0.00 52 1011.7
20211207001148 30 10 24.0 57.0 0.00 0.00 0.00 51 1011.6
20211207000648 30 10 29.0 46.0 0.00 0.00 0.00 48 1011.8
20211207000148 30 10 33.0 47.0 0.00 0.00 0.00 47 1011.9
20211206235648 30 10 16.0 47.0 0.00 0.00 0.00 47 1011.8
20211206235149 30 10 7.0 46.0 0.00 0.00 0.00 48 1011.8
20211206234648 30 10 18.0 47.0 0.00 0.00 0.00 49 1011.8
20211206234148 30 10 19.0 47.0 0.00 0.00 0.00 50 1011.9
20211206233649 30 10 30.0 41.0 0.00 0.00 0.00 50 1012.6
20211206233149 30 10 24.0 49.0 0.00 0.00 0.00 50 1012.6
20211206232648 29 10 7.0 44.0 0.00 0.00 0.00 51 1012.4
20211206232148 29 10 10.0 50.0 0.00 0.00 0.00 52 1013.7
20211206231648 29 10 17.0 49.0 0.00 0.00 0.00 53 1013.1
20211206231149 29 10 15.0 35.0 0.00 0.00 0.00 52 1013.6
20211206230648 29 10 22.0 37.0 0.00 0.00 0.00 51 1013.6
20211206230149 30 10 12.0 26.0 0.00 0.00 0.00 49 1013.7
20211206225649 30 10 0.0 7.0 0.00 0.00 0.00 47 1014.1
20211206225148 31 10 0.0 25.0 0.00 0.00 0.00 47 1014.3
20211206224648 31 10 16.0 43.0 0.00 0.00 0.00 46 1013.6
20211206224148 31 10 10.0 21.0 0.00 0.00 0.00 45 1013.9
20211206223648 31 10 12.0 18.0 0.00 0.00 0.00 44 1013.8
20211206223149 32 10 20.0 31.0 0.00 0.00 0.00 43 1013.5
20211206222648 32 10 10.0 14.0 0.00 0.00 0.00 40 1014.0
20211206222148 32 10 0.0 12.0 0.00 0.00 0.00 39 1014.4
20211206221648 32 10 0.0 14.0 0.00 0.00 0.00 39 1014.1
20211206221148 32 10 0.0 24.0 0.00 0.00 0.00 39 1013.3
20211206220648 33 10 1.0 21.0 0.00 0.00 0.00 38 1013.7
20211206220149 33 10 1.0 22.0 0.00 0.00 0.00 37 1013.5
20211206215648 33 10 0.0 16.0 0.00 0.00 0.00 37 1013.3
20211206215148 33 10 14.0 26.0 0.00 0.00 0.00 36 1014.1
20211206214648 33 10 0.0 13.0 0.00 0.00 0.00 35 1014.2
20211206214148 34 10 5.0 23.0 0.00 0.00 0.00 33 1014.8
20211206213648 34 10 2.0 22.0 0.00 0.00 0.00 33 1014.2
20211206213148 34 10 14.0 21.0 0.00 0.00 0.00 30 1014.3
20211206212648 34 10 2.0 14.0 0.00 0.00 0.00 28 1014.4
20211206212148 35 10 0.0 31.0 0.00 0.00 0.00 28 1013.4
20211206211649 35 10 3.0 28.0 0.00 0.00 0.00 28 1013.6
20211206211149 35 10 0.0 14.0 0.00 0.00 0.00 27 1013.8
20211206210648 36 10 20.0 22.0 0.00 0.00 0.00 26 1013.6
20211206210148 36 10 0.0 33.0 0.00 0.00 0.00 24 1013.7
20211206205648 36 10 13.0 30.0 0.00 0.00 0.00 23 1013.5
20211206205148 36 10 5.0 23.0 0.00 0.00 0.00 22 1013.4
20211206204648 37 10 15.0 34.0 0.00 0.00 0.00 22 1013.6
20211206204148 37 10 0.0 20.0 0.00 0.00 0.00 22 1013.6
20211206203648 38 10 0.0 41.0 0.00 0.00 0.00 20 1013.7
20211206203148 38 10 3.0 11.0 0.00 0.00 0.00 20 1013.5
20211206202648 39 10 12.0 21.0 0.00 0.00 0.00 20 1013.6
20211206202148 39 10 10.0 12.0 0.00 0.00 0.00 20 1013.6
20211206201648 38 10 3.0 15.0 0.00 0.00 0.00 21 1013.7
20211206201148 38 10 1.0 8.0 0.00 0.00 0.00 22 1014.0
20211206200648 38 10 2.0 18.0 0.00 0.00 0.00 22 1014.1
20211206200148 38 10 2.0 12.0 0.00 0.00 0.00 22 1013.9
20211206195648 39 10 0.0 17.0 0.00 0.00 0.00 23 1013.5
20211206195148 39 10 0.0 6.0 0.00 0.00 0.00 22 1014.0
20211206194648 39 10 0.0 11.0 0.00 0.00 0.00 22 1013.9
20211206194149 39 10 1.0 10.0 0.00 0.00 0.00 19 1013.9
20211206193648 38 10 0.0 4.0 0.00 0.00 0.00 17 1014.1
20211206193148 38 10 0.0 7.0 0.00 0.00 0.00 17 1014.3
20211206192648 38 10 0.0 7.0 0.00 0.00 0.00 17 1014.2
20211206192148 38 10 2.0 9.0 0.00 0.00 0.00 18 1014.2
20211206191648 38 10 0.0 2.0 0.00 0.00 0.00 18 1014.4
20211206191148 38 10 0.0 5.0 0.00 0.00 0.00 17 1014.4
20211206190648 38 5 0.0 5.0 0.00 0.00 0.00 18 1014.4
20211206190148 38 10 0.0 15.0 0.00 0.00 0.00 16 1014.4
20211206185648 38 10 9.0 10.0 0.00 0.00 0.00 18 1014.2
20211206185148 37 10 0.0 6.0 0.00 0.00 0.00 17 1014.6
20211206184648 37 10 7.0 10.0 0.00 0.00 0.00 18 1014.2
20211206184148 37 21 6.0 14.0 0.00 0.00 0.00 17 1014.2
20211206183648 38 10 8.0 15.0 0.00 0.00 0.00 17 1014.7
20211206183148 38 10 9.0 9.0 0.00 0.00 0.00 18 1014.4
20211206182649 38 10 0.0 5.0 0.00 0.00 0.00 18 1014.3
20211206182148 37 10 0.0 9.0 0.00 0.00 0.00 19 1014.0
20211206181648 37 10 0.0 2.0 0.00 0.00 0.00 18 1014.1
20211206181148 37 10 0.0 2.0 0.00 0.00 0.00 18 1014.2
20211206180648 37 10 2.0 4.0 0.00 0.00 0.00 18 1014.1
20211206180148 37 10 0.0 0.0 0.00 0.00 0.00 18 1014.2
20211206175648 37 10 0.0 0.0 0.00 0.00 0.00 18 1014.4
20211206175148 37 10 0.0 0.0 0.00 0.00 0.00 19 1014.2
20211206174648 37 45 0.0 0.0 0.00 0.00 0.00 19 1014.0
20211206174148 37 10 0.0 0.0 0.00 0.00 0.00 19 1013.9
20211206173648 37 10 0.0 0.0 0.00 0.00 0.00 19 1013.8
20211206173148 37 10 0.0 6.0 0.00 0.00 0.00 19 1014.1
20211206172648 37 10 0.0 0.0 0.00 0.00 0.00 18 1013.8
20211206172148 36 10 0.0 6.0 0.00 0.00 0.00 18 1013.7
20211206171648 36 10 0.0 4.0 0.00 0.00 0.00 19 1013.5
20211206171148 36 10 0.0 8.0 0.00 0.00 0.00 18 1013.6
20211206170648 36 10 0.0 8.0 0.00 0.00 0.00 18 1013.5
20211206170148 36 10 5.0 9.0 0.00 0.00 0.00 19 1013.0
20211206165648 36 10 6.0 6.0 0.00 0.00 0.00 19 1013.3
20211206165148 36 10 0.0 4.0 0.00 0.00 0.00 19 1012.9
20211206164648 36 10 0.0 0.0 0.00 0.00 0.00 18 1013.0
20211206164148 35 10 0.0 4.0 0.00 0.00 0.00 18 1012.4
20211206163648 35 10 0.0 6.0 0.00 0.00 0.00 19 1012.5
20211206163148 34 10 2.0 8.0 0.00 0.00 0.00 19 1012.4
20211206162648 34 10 0.0 0.0 0.00 0.00 0.00 20 1012.5
20211206162148 34 117 0.0 0.0 0.00 0.00 0.00 21 1012.0
20211206161648 34 10 0.0 0.0 0.00 0.00 0.00 21 1012.0
20211206161148 34 10 0.0 0.0 0.00 0.00 0.00 21 1011.7
20211206160648 34 10 0.0 0.0 0.00 0.00 0.00 21 1011.4
20211206160148 33 10 0.0 0.0 0.00 0.00 0.00 21 1011.1
20211206155649 33 10 0.0 8.0 0.00 0.00 0.00 20 1011.2
20211206155148 32 10 0.0 10.0 0.00 0.00 0.00 24 1011.1
20211206154648 32 10 0.0 11.0 0.00 0.00 0.00 23 1011.1
20211206154149 31 10 9.0 9.0 0.00 0.00 0.00 22 1010.9
20211206153648 31 10 1.0 8.0 0.00 0.00 0.00 23 1010.8
20211206153148 31 10 4.0 10.0 0.00 0.00 0.00 23 1010.6
20211206152648 31 10 10.0 11.0 0.00 0.00 0.00 22 1010.6
20211206152149 30 10 1.0 18.0 0.00 0.00 0.00 22 1010.4
20211206151648 30 10 0.0 12.0 0.00 0.00 0.00 21 1010.4
20211206151148 29 10 0.0 13.0 0.00 0.00 0.00 22 1010.1
20211206150648 29 10 8.0 15.0 0.00 0.00 0.00 22 1009.9
20211206150148 29 10 3.0 10.0 0.00 0.00 0.00 22 1009.7
20211206145648 29 10 2.0 10.0 0.00 0.00 0.00 21 1009.5
20211206145149 29 10 0.0 8.0 0.00 0.00 0.00 20 1009.5
20211206144649 29 10 0.0 14.0 0.00 0.00 0.00 20 1009.4
20211206144148 28 313 3.0 12.0 0.00 0.00 0.00 20 1009.3
20211206143648 29 10 9.0 15.0 0.00 0.00 0.00 20 1008.9
20211206143148 29 10 13.0 19.0 0.00 0.00 0.00 20 1008.6
20211206142648 29 10 6.0 18.0 0.00 0.00 0.00 20 1008.6
20211206142148 29 10 3.0 17.0 0.00 0.00 0.00 20 1008.4
20211206141648 29 10 1.0 17.0 0.00 0.00 0.00 20 1008.2
20211206141148 29 10 17.0 19.0 0.00 0.00 0.00 20 1007.9
20211206140649 29 10 6.0 19.0 0.00 0.00 0.00 20 1007.8
20211206140148 29 10 18.0 20.0 0.00 0.00 0.00 19 1007.5
20211206135648 29 10 9.0 15.0 0.00 0.00 0.00 19 1007.6
20211206135148 29 10 7.0 19.0 0.00 0.00 0.00 18 1006.9
20211206134648 29 10 8.0 19.0 0.00 0.00 0.00 18 1006.9
20211206134148 28 10 10.0 17.0 0.00 0.00 0.00 19 1006.9
20211206133648 28 10 0.0 13.0 0.00 0.00 0.00 19 1007.0
20211206133148 28 10 0.0 14.0 0.00 0.00 0.00 21 1006.8
20211206132648 27 37 0.0 12.0 0.00 0.00 0.00 20 1006.8
20211206132148 27 10 0.0 12.0 0.00 0.00 0.00 21 1006.8
20211206131649 27 10 7.0 14.0 0.00 0.00 0.00 22 1006.7
20211206131148 26 10 2.0 12.0 0.00 0.00 0.00 24 1006.5
20211206130648 26 10 1.0 8.0 0.00 0.00 0.00 24 1006.6
20211206130149 27 10 0.0 5.0 0.00 0.00 0.00 24 1006.6
20211206125648 27 10 3.0 9.0 0.00 0.00 0.00 23 1006.6
20211206125149 27 10 0.0 12.0 0.00 0.00 0.00 22 1006.4
20211206124648 28 10 1.0 6.0 0.00 0.00 0.00 24 1006.7
20211206124148 28 10 0.0 10.0 0.00 0.00 0.00 23 1006.7
20211206123648 28 10 7.0 14.0 0.00 0.00 0.00 21 1006.5
20211206123148 29 10 2.0 10.0 0.00 0.00 0.00 22 1006.5
20211206122649 29 10 0.0 18.0 0.00 0.00 0.00 20 1006.6
20211206122148 30 10 0.0 9.0 0.00 0.00 0.00 21 1006.6
20211206121648 30 10 11.0 20.0 0.00 0.00 0.00 20 1006.5
20211206121148 30 10 0.0 14.0 0.00 0.00 0.00 17 1006.4
20211206120648 31 10 3.0 15.0 0.00 0.00 0.00 17 1006.0
20211206120148 31 10 4.0 12.0 0.00 0.00 0.00 15 1005.9
20211206115648 31 10 1.0 17.0 0.00 0.00 0.00 14 1005.3
20211206115149 31 10 0.0 22.0 0.00 0.00 0.00 14 1005.1
20211206114649 31 10 5.0 24.0 0.00 0.00 0.00 14 1004.8
20211206114148 30 10 24.0 28.0 0.00 0.00 0.00 14 1004.6
20211206113648 28 10 4.0 28.0 0.00 0.00 0.00 18 1004.5
20211206113148 26 10 13.0 30.0 0.00 0.00 0.00 24 1004.9
20211206112648 24 10 0.0 32.0 0.00 0.00 0.00 32 1004.6
20211206112148 23 10 3.0 13.0 0.00 0.00 0.00 39 1004.6
20211206111648 23 10 6.0 12.0 0.00 0.00 0.00 40 1004.8
20211206111148 22 10 0.0 8.0 0.00 0.00 0.00 45 1004.8
20211206110648 22 10 2.0 9.0 0.00 0.00 0.00 45 1004.7
20211206110149 23 10 0.0 0.0 0.00 0.00 0.00 45 1005.2
20211206105648 23 10 0.0 1.0 0.00 0.00 0.00 45 1005.2
20211206105148 23 23 0.0 3.0 0.00 0.00 0.00 45 1005.1
20211206104648 23 10 0.0 9.0 0.00 0.00 0.00 45 1005.5
20211206104148 22 10 7.0 8.0 0.00 0.00 0.00 45 1005.8
20211206103648 22 10 0.0 3.0 0.00 0.00 0.00 46 1005.9
20211206103148 22 10 0.0 7.0 0.00 0.00 0.00 46 1006.1
20211206102649 22 10 0.0 6.0 0.00 0.00 0.00 46 1006.0
20211206102149 23 10 0.0 7.0 0.00 0.00 0.00 45 1006.3
20211206101648 23 10 0.0 2.0 0.00 0.00 0.00 44 1006.3
20211206101149 23 10 0.0 12.0 0.00 0.00 0.00 43 1006.5
20211206100648 22 10 10.0 14.0 0.00 0.00 0.00 46 1006.8
20211206100148 22 172 0.0 0.0 0.00 0.00 0.00 46 1006.9
20211206095648 22 10 0.0 11.0 0.00 0.00 0.00 46 1007.0
20211206095148 23 10 4.0 7.0 0.00 0.00 0.00 45 1007.2
20211206094648 23 10 0.0 0.0 0.00 0.00 0.00 45 1007.4
20211206094148 23 10 0.0 10.0 0.00 0.00 0.00 45 1007.5
20211206093648 22 10 0.0 19.0 0.00 0.00 0.00 45 1007.7
20211206093148 21 10 5.0 8.0 0.00 0.00 0.00 48 1007.8
20211206092648 21 10 0.0 10.0 0.00 0.00 0.00 48 1008.0